Torna al catalogo

HAWK-10C

AttivoScienzaSSO
NORAD 60575·PAYLOAD·🇺🇸 United States

Lanciato Aug 16, 2024 da Vandenberg Space Force Base

Loading…

Prossimi Passaggi (prossime 24 ore)

TLE

AggiornatoSource: Space-Track

Epoca: Sep 14, 2026, 11:49 UTC

1 60575U 24149DM  26257.49271953  .00001633  00000-0  14791-3 0  9993
2 60575  97.6664 330.3604 0004911 110.6623 249.5126 14.96729555113340

Traccia HAWK-10C in tempo reale con AllMySat

Download on the App Store